When you browse on this site, cookies collect data to enhance your experience and personalize the content and advertising you see.
Visit our Privacy Policy to learn more. By continuing to use the site, you agree to this use of cookies and data.
  • en Suisse
  • Liste des pays
  • À 7 jours
  • Température de l'eau
  • Carte satellitaire
  • Carte météo
  • Widgets météo
  • user-avatar
    Se connecter

    Météo par heure à Tomashivka

    Ce jour, 19 Juillet, Vendredi

    Heure Température Précipitation Vent Pression Humidité
    00:00 +13°C° 0 mm 3 m/s 746 mmHg 93%
    01:00 +13°C° 0 mm 3 m/s 746 mmHg 93%
    02:00 +13°C° 0 mm 3 m/s 746 mmHg 94%
    03:00 +13°C° 0 mm 3 m/s 747 mmHg 95%
    04:00 +13°C° 0 mm 3 m/s 747 mmHg 95%
    05:00 +13°C° 0 mm 3 m/s 747 mmHg 96%
    06:00 +14°C° 0 mm 4 m/s 747 mmHg 90%
    07:00 +17°C° 0 mm 4 m/s 748 mmHg 85%
    08:00 +19°C° 0 mm 5 m/s 748 mmHg 79%
    09:00 +20°C° 0.2 mm 5 m/s 748 mmHg 74%
    10:00 +21°C° 0.2 mm 5 m/s 748 mmHg 70%
    11:00 +22°C° 0.2 mm 5 m/s 748 mmHg 65%
    12:00 +23°C° 0.1 mm 5 m/s 748 mmHg 62%
    13:00 +23°C° 0.1 mm 4 m/s 748 mmHg 60%
    14:00 +25°C° 0.1 mm 4 m/s 748 mmHg 57%
    15:00 +25°C° 0.2 mm 4 m/s 748 mmHg 60%
    16:00 +25°C° 0.2 mm 3 m/s 748 mmHg 62%
    17:00 +25°C° 0.2 mm 3 m/s 749 mmHg 65%
    18:00 +22°C° 0.1 mm 3 m/s 749 mmHg 70%
    19:00 +20°C° 0.1 mm 3 m/s 749 mmHg 75%
    20:00 +18°C° 0.1 mm 3 m/s 749 mmHg 80%
    21:00 +18°C° 0 mm 3 m/s 749 mmHg 82%
    22:00 +17°C° 0 mm 3 m/s 749 mmHg 84%
    23:00 +17°C° 0 mm 3 m/s 750 mmHg 86%

    Demain, 20 Juillet, Samedi

    Heure Température Précipitation Vent Pression Humidité
    00:00 +16°C° 0 mm 2 m/s 750 mmHg 88%
    01:00 +16°C° 0 mm 2 m/s 750 mmHg 90%
    02:00 +16°C° 0 mm 2 m/s 750 mmHg 92%
    03:00 +16°C° 0 mm 2 m/s 750 mmHg 92%
    04:00 +16°C° 0 mm 2 m/s 750 mmHg 93%
    05:00 +15°C° 0 mm 2 m/s 750 mmHg 93%
    06:00 +17°C° 0 mm 2 m/s 751 mmHg 88%
    07:00 +19°C° 0 mm 2 m/s 751 mmHg 82%
    08:00 +21°C° 0 mm 2 m/s 751 mmHg 77%
    09:00 +22°C° 0 mm 3 m/s 751 mmHg 71%
    10:00 +24°C° 0 mm 3 m/s 752 mmHg 65%
    11:00 +25°C° 0 mm 3 m/s 752 mmHg 60%
    12:00 +26°C° 0 mm 3 m/s 752 mmHg 57%
    13:00 +26°C° 0 mm 3 m/s 752 mmHg 54%
    14:00 +27°C° 0 mm 3 m/s 751 mmHg 52%
    15:00 +27°C° 0 mm 3 m/s 751 mmHg 54%
    16:00 +26°C° 0 mm 2 m/s 752 mmHg 56%
    17:00 +26°C° 0 mm 2 m/s 752 mmHg 58%
    18:00 +24°C° 0 mm 2 m/s 752 mmHg 62%
    19:00 +23°C° 0 mm 2 m/s 752 mmHg 67%
    20:00 +20°C° 0 mm 2 m/s 752 mmHg 71%
    21:00 +21°C° 0 mm 1 m/s 752 mmHg 72%
    22:00 +20°C° 0 mm 1 m/s 752 mmHg 73%
    23:00 +19°C° 0 mm 1 m/s 752 mmHg 74%

    Après-demain, 21 Juillet, Dimanche

    Heure Température Précipitation Vent Pression Humidité
    00:00 +19°C° 0 mm 1 m/s 752 mmHg 74%
    01:00 +19°C° 0 mm 1 m/s 752 mmHg 75%
    02:00 +17°C° 0 mm 0 m/s 752 mmHg 75%
    03:00 +17°C° 0 mm 0 m/s 752 mmHg 77%
    04:00 +17°C° 0 mm 0 m/s 752 mmHg 79%
    05:00 +16°C° 0 mm 0 m/s 752 mmHg 81%
    06:00 +18°C° 0 mm 0 m/s 752 mmHg 76%
    07:00 +20°C° 0 mm 0 m/s 752 mmHg 71%
    08:00 +21°C° 0 mm 0 m/s 752 mmHg 66%
    09:00 +23°C° 0 mm 0 m/s 752 mmHg 62%
    10:00 +26°C° 0 mm 1 m/s 752 mmHg 58%
    11:00 +27°C° 0 mm 1 m/s 752 mmHg 54%
    12:00 +27°C° 0.1 mm 1 m/s 751 mmHg 53%
    13:00 +27°C° 0.1 mm 1 m/s 751 mmHg 53%
    14:00 +28°C° 0.1 mm 1 m/s 751 mmHg 52%
    15:00 +28°C° 0 mm 1 m/s 751 mmHg 55%
    16:00 +27°C° 0 mm 1 m/s 751 mmHg 59%
    17:00 +25°C° 0 mm 0 m/s 751 mmHg 62%
    18:00 +26°C° 0 mm 1 m/s 751 mmHg 62%
    19:00 +25°C° 0 mm 1 m/s 751 mmHg 62%
    20:00 +24°C° 0 mm 2 m/s 750 mmHg 63%
    21:00 +23°C° 0 mm 2 m/s 751 mmHg 66%
    22:00 +23°C° 0 mm 1 m/s 751 mmHg 68%
    23:00 +22°C° 0 mm 1 m/s 751 mmHg 71%

    22 Juillet, Lundi

    Heure Température Précipitation Vent Pression Humidité
    00:00 +20°C° 0 mm 2 m/s 750 mmHg 74%
    01:00 +20°C° 0 mm 2 m/s 750 mmHg 77%
    02:00 +19°C° 0 mm 2 m/s 750 mmHg 80%
    03:00 +19°C° 0 mm 2 m/s 750 mmHg 82%
    04:00 +19°C° 0 mm 2 m/s 749 mmHg 84%
    05:00 +19°C° 0 mm 2 m/s 749 mmHg 86%
    06:00 +20°C° 0.2 mm 3 m/s 749 mmHg 84%
    07:00 +21°C° 0.2 mm 3 m/s 749 mmHg 82%
    08:00 +23°C° 0.2 mm 4 m/s 749 mmHg 80%
    09:00 +22°C° 1.2 mm 3 m/s 748 mmHg 83%
    10:00 +22°C° 1.2 mm 3 m/s 748 mmHg 86%
    11:00 +21°C° 1.2 mm 3 m/s 748 mmHg 88%
    12:00 +22°C° 1.4 mm 4 m/s 748 mmHg 84%
    13:00 +23°C° 1.4 mm 5 m/s 747 mmHg 80%
    14:00 +24°C° 1.4 mm 7 m/s 747 mmHg 75%
    15:00 +24°C° 0.2 mm 6 m/s 747 mmHg 74%
    16:00 +24°C° 0.2 mm 6 m/s 747 mmHg 73%
    17:00 +23°C° 0.2 mm 6 m/s 747 mmHg 72%
    18:00 +22°C° 0 mm 5 m/s 746 mmHg 75%
    19:00 +21°C° 0 mm 4 m/s 746 mmHg 79%
    20:00 +20°C° 0 mm 3 m/s 746 mmHg 82%
    21:00 +19°C° 0 mm 3 m/s 746 mmHg 86%
    22:00 +19°C° 0 mm 4 m/s 746 mmHg 90%
    23:00 +18°C° 0 mm 4 m/s 746 mmHg 94%

    23 Juillet, Mardi

    Heure Température Précipitation Vent Pression Humidité
    00:00 +18°C° 0 mm 4 m/s 746 mmHg 94%
    01:00 +17°C° 0 mm 4 m/s 746 mmHg 94%
    02:00 +17°C° 0 mm 4 m/s 745 mmHg 94%
    03:00 +16°C° 0 mm 5 m/s 745 mmHg 94%
    04:00 +16°C° 0 mm 5 m/s 745 mmHg 94%
    05:00 +16°C° 0 mm 5 m/s 745 mmHg 93%
    06:00 +16°C° 0 mm 5 m/s 745 mmHg 90%
    07:00 +17°C° 0 mm 5 m/s 745 mmHg 88%
    08:00 +17°C° 0 mm 5 m/s 745 mmHg 85%
    09:00 +19°C° 0.1 mm 5 m/s 745 mmHg 82%
    10:00 +20°C° 0.1 mm 6 m/s 745 mmHg 80%
    11:00 +21°C° 0.1 mm 6 m/s 745 mmHg 77%
    12:00 +21°C° 0.2 mm 6 m/s 745 mmHg 78%
    13:00 +21°C° 0.2 mm 6 m/s 745 mmHg 78%
    14:00 +21°C° 0.2 mm 5 m/s 744 mmHg 79%
    15:00 +21°C° 0.4 mm 5 m/s 744 mmHg 79%
    16:00 +21°C° 0.4 mm 5 m/s 744 mmHg 79%
    17:00 +20°C° 0.4 mm 5 m/s 744 mmHg 80%
    18:00 +19°C° 0 mm 4 m/s 744 mmHg 85%
    19:00 +18°C° 0 mm 3 m/s 744 mmHg 90%
    20:00 +17°C° 0 mm 2 m/s 744 mmHg 95%
    21:00 +17°C° 0.2 mm 2 m/s 744 mmHg 95%
    22:00 +17°C° 0.2 mm 3 m/s 744 mmHg 96%
    23:00 +16°C° 0.2 mm 3 m/s 744 mmHg 96%

    24 Juillet, Mercredi

    Heure Température Précipitation Vent Pression Humidité
    00:00 +17°C° 0.1 mm 3 m/s 744 mmHg 96%
    01:00 +17°C° 0.1 mm 3 m/s 744 mmHg 96%
    02:00 +17°C° 0.1 mm 2 m/s 744 mmHg 96%
    03:00 +17°C° 0.1 mm 3 m/s 744 mmHg 96%
    04:00 +16°C° 0.1 mm 3 m/s 744 mmHg 96%
    05:00 +16°C° 0.1 mm 3 m/s 744 mmHg 95%
    06:00 +17°C° 0.1 mm 4 m/s 744 mmHg 93%
    07:00 +16°C° 0.1 mm 5 m/s 744 mmHg 91%
    08:00 +16°C° 0.1 mm 5 m/s 745 mmHg 88%
    09:00 +17°C° 0 mm 6 m/s 745 mmHg 86%
    10:00 +17°C° 0 mm 6 m/s 745 mmHg 83%
    11:00 +17°C° 0 mm 7 m/s 745 mmHg 81%
    12:00 +18°C° 0 mm 7 m/s 745 mmHg 79%
    13:00 +18°C° 0 mm 7 m/s 745 mmHg 77%
    14:00 +20°C° 0 mm 7 m/s 745 mmHg 75%
    15:00 +18°C° 0 mm 7 m/s 745 mmHg 78%
    16:00 +18°C° 0 mm 7 m/s 745 mmHg 81%
    17:00 +17°C° 0 mm 6 m/s 745 mmHg 84%
    18:00 +17°C° 0 mm 6 m/s 745 mmHg 84%
    19:00 +17°C° 0 mm 6 m/s 745 mmHg 84%
    20:00 +17°C° 0 mm 6 m/s 745 mmHg 83%
    21:00 +16°C° 0.3 mm 6 m/s 745 mmHg 86%
    22:00 +16°C° 0.3 mm 5 m/s 745 mmHg 88%
    23:00 +15°C° 0.3 mm 5 m/s 745 mmHg 90%
    Voir plus